SCP
0 0 0 0 0 0 0 0 0 0 0 0 0 0 0 0 0 0 0 0 0 0 0 0 0 0 0 0 0 0 0 0 0 0 0 0 0 0 0 0 0 0 0 -0
0 0 0 0 0 0 0 0 0 0 0 0 0 0 0 0 0 0 0 0 0 0 0 0 0 0 0 0 0 0 0 0 0 0 0 0 0 0 0 0 0 0 0 0
0 0 0 0 0 0 0 0 0 0 0 0 0 0 0 0 0 0 0 0 0 0 0 0 0 0 0 0 0 0 0 0 0 0 0 0 0 0 0 0 0 0 0 0
0 0 0 0 0 0 0 0 0 0 0 0 0 0 0 0 0 0 0 0 0 0 0 0 0 0 0 0 0 0 0 0 0 0 0 0 0 0 0 0 0 0 0 0
0 0 0 0 0 0 0 0 0 0 0 0 0 0 0 0 0 0 0 0 0 0 0 0 0 0 0 0 0 0 0 0 0 0 0 0 0 0 0 0 0 0 0 0
0 0 0 0 0 0 0 0 0 0 0 0 0 0 0 0 0 0 0 0 0 0 0 0 0 0 0 0 0 0 0 0 0 0 0 0 0 0 0 0 0 0 0 0
0 0 0 0 0 0 0 0 0 0 0 0 0 0 0 0 0 0 0 0 0 0 0 0 0 0 0 0 0 0 0 0 0 0 0 0 0 0 0 0 0 0 0 0
0 0 0 0 0 0 0 0 0 0 0 0 0 0 0 0 0 0 0 0 0 0 0 0 0 0 0 0 0 0 0 0 0 0 0 0 0 0 0 0 0 0 0 0
0 0 0 0 0 0 0 0 0 0 0 0 0 0 0 0 0 0 0 0 0 0 0 0 0 0 0 0 0 0 0 0 0 0 0 0 0 0 0 0 0 0 0 0
0 0 0 0 0 0 0 0 0 0 0 0 0 0 0 0 0 0 0 0 0 0 0 0 0 0 0 0 0 0 0 0 0 0 0 0 0 0 0 0 0 0 0 0
0 0 0 0 0 0 0 0 0 0 0 0 0 0 0 0 0 0 0 0 0 0 0 0 0 0 0 0 0 0 0 0 0 0 0 0 0 0 0 0 0 0 0 -0
0 0 0 0 0 0 0 0 0 0 0 0 0 0 0 0 0 0 0 0 0 0 0 0 0 0 0 0 0 0 0 0 0 0 0 0 0 0 0 0 0 0 -0 -0
0 0 0 0 0 0 0 0 0 0 0 0 0 0 0 0 0 0 0 0 0 0 0 0 0 0 0 0 0 0 0 0 0 0 0 0 0 0 0 0 0 0 0 0
0 0 0 0 0 0 0 0 0 0 0 0 0 0 0 0 0 0 0 0 0 0 0 0 0 0 0 0 0 0 0 0 0 0 0 0 0 0 0 0 0 0 0 0
0 0 0 0 0 0 0 0 0 0 0 0 0 0 0 0 0 0 0 0 0 0 0 0 0 0 0 0 0 0 0 0 0 0 0 0 0 0 0 0 0 -0 0 0
0 0 0 0 0 0 0 0 0 0 0 0 0 0 0 0 0 0 0 0 0 0 0 0 0 0 0 0 0 0 0 0 0 0 0 0 0 0 0 0 0 0 0 0
0 0 0 0 0 0 0 0 0 0 0 0 0 0 0 0 0 0 0 0 0 0 0 0 0 0 0 0 0 0 0 0 0 0 0 0 0 0 0 0 0 0 0 0
0 0 0 0 0 0 0 0 0 0 0 0 0 0 0 0 0 0 0 0 0 0 0 0 0 0 0 0 0 0 0 0 0 0 0 0 0 0 0 0 0 0 0 0
0 0 0 0 0 0 0 0 0 0 0 0 0 0 0 0 0 0 0 0 0 0 0 0 0 0 0 0 0 0 0 0 0 0 0 0 0 0 0 0 0 0 0 0
0 0 0 0 0 0 0 0 0 0 0 0 0 0 0 0 0 0 0 0 0 0 0 0 0 0 0 0 0 0 0 0 0 0 0 0 0 0 0 0 0 0 0 0
0 0 0 0 0 0 0 0 0 0 0 0 0 0 0 0 0 0 0 0 0 0 0 0 0 0 0 0 0 0 0 0 0 0 0 -0 0 0 0 0 0 0 0 0
0 0 0 0 0 0 0 0 0 0 0 0 0 0 0 0 0 0 0 0 0 0 0 0 0 0 0 0 0 0 0 0 0 0 0 -0 -0 -0 -0 0 0 0 0 0
0 0 0 0 0 0 0 0 0 0 0 0 0 0 0 0 0 0 0 0 0 0 0 0 0 0 0 0 0 0 0 0 0 0 -0 -0 -0 -0 -0 0 0 0 0 0
0 0 0 0 0 0 0 0 0 0 0 0 0 0 0 0 0 0 0 0 0 0 0 0 0 0 0 0 0 0 0 0 0 0 0 -0 0 0 0 0 0 0 0 0
0 0 0 0 0 0 0 0 0 0 0 0 0 0 0 0 0 0 0 0 0 0 0 0 0 0 0 0 0 0 0 0 0 0 -0 0 0 0 0 0 0 0 0 0
0 0 0 0 0 0 0 0 0 0 0 0 0 0 0 0 0 0 0 0 0 0 0 0 0 0 -0 0 0 0 0 0 0 0 0 0 0 0 0 0 0 0 0 0
0 0 0 0 0 0 0 0 0 0 0 0 0 0 0 0 0 0 0 0 0 0 0 0 -0 0 -0 0 0 0 0 0 0 0 0 0 0 0 0 0 0 0 0 0
Wind_Speed_500mb
6 9 6 8 10 17 17 16 23 20 20 12 21 18 36 32 31 40 40 47 53 53 45 41 36 29 26 25 26 29 31 33 38 44 48 51 55 56 59 66 75 81 86 90
6 4 7 10 14 17 21 10 13 18 35 17 18 26 22 26 26 27 26 28 37 45 43 41 35 33 30 33 38 39 38 42 46 51 52 57 59 60 67 76 79 85 87 89
21 2 6 16 22 30 19 19 18 27 36 9 13 17 21 27 25 24 23 25 30 36 40 40 40 41 44 48 50 50 48 48 50 55 58 62 62 68 75 78 82 84 85 88
5 4 10 6 6 7 14 16 14 5 6 15 11 13 18 20 26 28 24 24 26 27 28 35 44 53 58 60 61 56 53 53 52 57 62 61 64 72 75 80 83 85 86 88
8 9 14 15 11 14 15 18 17 23 11 12 11 13 28 25 31 29 27 25 25 25 31 40 48 53 57 59 59 57 56 54 55 57 58 61 69 71 75 80 81 82 86 90
7 8 17 8 4 11 14 13 20 29 18 20 15 3 13 36 41 34 29 25 31 36 44 48 50 50 52 55 57 57 54 54 55 56 59 65 68 70 74 77 81 83 86 85
11 11 15 13 12 14 11 15 26 31 21 23 12 34 39 26 28 41 33 33 34 41 45 49 52 54 57 59 59 56 55 54 56 57 60 65 67 68 72 77 80 83 85 83
5 3 18 24 13 18 11 28 35 33 26 30 39 40 41 42 34 43 42 45 44 45 48 51 57 61 63 62 56 53 53 54 53 55 58 61 65 66 68 71 77 80 82 83
21 14 1 43 15 43 35 29 32 28 23 35 46 49 44 46 47 53 55 52 49 48 51 56 61 66 66 60 55 54 54 53 53 55 56 56 60 62 67 67 73 77 76 79
9 8 12 23 33 34 39 56 53 46 39 45 52 54 51 54 59 59 56 58 55 54 58 63 65 67 64 58 56 55 55 55 54 54 54 54 56 57 62 63 68 72 73 80
5 8 10 31 39 43 50 57 52 53 56 59 59 60 63 67 67 62 57 57 53 56 58 64 67 65 60 57 56 56 56 54 53 55 55 55 56 55 57 57 60 63 63 67
9 25 23 29 48 47 46 53 58 60 63 61 59 65 61 65 66 56 51 52 53 54 58 65 65 60 56 55 58 58 54 53 53 54 52 54 57 58 45 50 52 53 47 44
21 52 46 53 55 56 58 64 65 65 66 65 61 60 62 60 57 54 55 55 56 54 56 58 56 55 55 57 59 55 55 53 53 52 52 54 55 56 61 42 41 47 44 45
61 63 43 65 49 57 52 50 51 53 55 52 54 56 60 60 58 61 58 52 49 50 52 53 54 52 54 56 53 53 52 51 52 49 50 52 53 50 49 50 47 41 39 45
59 59 67 66 59 62 58 60 61 64 58 57 60 59 55 57 57 51 47 47 48 50 53 53 53 49 54 53 52 50 49 48 48 47 46 48 47 45 43 42 41 41 41 37
66 56 54 52 54 46 43 50 57 56 54 56 52 47 44 44 43 45 48 49 50 53 51 50 49 44 51 51 50 48 48 47 45 45 44 43 41 40 39 37 37 37 38 43
63 63 65 61 58 51 46 46 48 48 48 46 41 40 39 41 44 46 47 49 51 49 45 47 45 48 52 51 51 48 46 44 43 41 41 40 36 34 35 34 35 36 34 36
74 73 64 58 56 52 49 46 42 42 40 37 36 37 39 40 40 41 43 44 45 46 43 48 49 48 51 51 49 47 45 42 41 39 37 34 31 31 31 32 32 35 31 29
85 79 67 60 54 49 39 36 35 33 32 32 33 32 31 32 33 36 39 42 43 47 40 50 52 52 47 47 49 46 42 40 37 36 33 31 28 28 29 30 30 31 33 34
71 62 53 46 39 34 31 32 32 30 26 23 23 23 25 30 32 34 38 42 40 47 48 47 52 52 49 47 45 41 39 37 35 34 32 30 29 28 28 29 31 31 33 34
54 45 41 37 34 31 31 28 26 22 19 18 18 18 21 26 31 35 39 45 38 47 48 45 43 40 41 40 39 37 35 34 35 35 33 32 31 31 32 34 36 38 39 41
38 35 34 33 30 26 23 20 17 14 12 12 12 16 21 27 32 35 39 42 38 39 39 37 34 33 32 32 33 32 33 33 33 34 33 33 33 34 35 38 38 38 39 41
32 30 26 23 21 20 17 14 11 9 8 10 13 15 19 24 27 27 26 28 27 28 28 28 27 27 27 29 29 29 30 32 32 33 33 33 34 36 37 37 37 37 38 38
24 24 23 21 18 18 17 14 10 7 6 9 13 15 17 18 21 19 20 21 23 26 26 26 26 22 27 28 30 30 31 31 32 32 32 32 33 36 37 37 36 37 38 39
22 23 22 20 18 16 13 8 5 4 5 7 10 11 11 12 15 18 20 22 24 26 26 26 26 26 30 31 32 31 30 31 30 30 31 32 34 37 37 38 38 41 41 40
23 21 20 18 15 12 9 6 5 4 4 6 7 9 11 14 16 19 20 23 23 24 25 26 26 26 27 28 28 28 28 29 32 33 34 36 38 38 38 39 39 41 41 41
19 17 15 12 10 7 5 3 2 2 4 6 11 11 13 14 16 19 20 22 22 23 24 25 26 27 27 28 29 30 31 32 33 35 36 37 37 36 37 38 38 40 40 40
Wind_Direction_500mb
217 158 149 218 208 173 195 216 216 242 222 220 204 214 233 231 254 257 250 245 240 237 237 231 228 233 240 249 256 265 275 287 296 303 306 308 310 309 311 313 313 313 312 311
256 242 195 252 235 204 236 244 255 263 268 246 238 227 240 253 237 225 233 241 239 237 233 230 240 242 246 252 253 259 267 276 288 297 301 306 306 307 310 311 312 312 312 312
235 90 104 278 218 211 208 210 215 233 242 156 229 192 228 245 227 233 246 246 242 237 239 242 248 248 251 253 254 257 264 273 286 296 300 303 304 307 309 311 312 313 313 313
125 109 222 261 75 106 221 250 211 266 234 221 238 277 276 274 270 253 237 229 231 239 245 247 250 248 249 252 252 253 260 269 285 294 296 297 302 307 310 313 313 315 315 315
198 202 320 271 194 169 170 260 192 212 220 238 242 270 271 261 246 240 247 246 247 246 256 259 254 252 252 251 248 251 261 272 285 290 292 298 306 310 313 313 314 315 316 317
131 178 220 269 69 127 108 274 211 192 193 191 161 146 262 275 244 238 222 236 271 273 260 264 266 264 255 246 246 255 266 277 285 290 296 305 307 311 314 314 315 316 316 317
201 233 281 227 179 127 113 250 162 181 191 197 188 235 269 270 241 233 238 271 277 263 265 270 266 261 250 246 251 261 270 280 286 290 299 304 308 314 316 316 316 316 316 318
84 184 269 164 116 164 190 156 171 191 220 234 258 264 260 256 241 228 256 273 270 261 268 268 257 251 246 250 257 267 275 280 283 289 299 305 309 314 313 315 316 316 318 320
186 205 80 180 201 219 241 229 220 230 281 294 274 257 254 246 250 261 268 265 261 260 265 260 254 249 249 254 262 273 278 282 285 293 301 306 309 313 315 317 317 318 320 321
109 206 214 215 228 251 256 251 256 260 280 284 270 261 255 257 264 263 262 263 257 260 261 254 250 250 251 257 267 275 281 283 288 296 302 307 311 316 316 319 318 319 322 326
265 256 198 236 244 266 268 261 263 267 279 280 270 260 268 268 272 268 265 263 259 263 264 255 248 250 253 262 270 276 279 284 291 298 304 309 312 316 317 320 321 321 318 314
207 231 230 252 273 273 268 269 271 275 280 283 279 267 270 275 274 267 265 262 263 264 254 246 248 251 260 268 275 278 281 284 291 298 305 309 311 312 315 317 319 320 316 311
221 259 258 263 270 275 274 276 278 280 283 284 285 274 280 278 271 267 265 262 263 260 251 249 252 258 263 270 275 277 280 285 293 300 305 308 309 311 314 316 317 324 331 334
249 253 256 261 260 285 283 287 287 281 283 281 280 279 279 270 264 266 262 260 258 255 253 255 258 262 267 272 273 275 281 287 292 297 301 304 306 309 313 319 324 325 329 341
252 247 256 268 275 278 283 284 281 283 282 279 278 277 272 268 265 260 258 258 259 258 258 260 263 267 270 273 276 278 282 285 289 293 296 299 301 305 309 312 317 325 327 333
263 263 260 260 265 271 275 274 273 276 281 282 278 269 262 257 255 259 262 263 262 263 265 267 271 273 274 276 277 279 280 283 287 290 293 295 299 303 305 307 313 321 329 334
250 252 254 257 261 274 276 277 273 273 271 267 261 256 256 258 261 263 264 265 265 267 271 275 276 273 273 274 275 276 278 281 284 285 288 290 295 300 302 306 312 318 328 333
256 262 267 269 271 272 274 271 262 258 256 252 249 250 255 259 260 261 264 270 276 279 283 279 277 274 274 275 274 274 277 278 278 279 280 284 291 297 300 305 311 315 324 329
264 265 265 265 265 266 255 247 244 242 239 240 244 247 253 258 266 274 279 280 281 282 281 277 279 278 275 272 271 273 274 273 273 273 275 279 286 292 297 302 306 310 317 323
261 257 252 251 250 240 237 234 231 228 230 239 253 263 270 276 277 277 280 282 287 284 283 281 278 277 275 270 268 268 266 266 265 266 269 274 279 285 291 297 301 306 310 315
250 244 238 231 227 223 220 218 218 221 230 247 261 271 278 281 286 290 293 295 299 293 292 289 283 276 267 264 262 261 260 261 265 267 267 270 276 283 288 292 295 300 303 307
232 226 220 215 211 208 203 205 213 224 237 251 267 280 286 290 297 303 306 307 310 305 302 298 289 282 273 267 262 259 260 264 266 268 270 274 279 284 288 290 293 295 300 303
215 207 203 199 194 190 189 195 203 219 244 272 284 294 301 302 306 313 315 318 320 319 313 306 297 289 282 271 267 266 271 271 271 272 274 277 282 286 289 291 294 299 301 306
189 181 178 180 179 178 180 183 194 218 256 292 301 307 308 311 315 322 323 323 319 317 314 309 303 298 280 279 280 282 280 277 275 275 276 280 283 285 288 292 298 300 302 304
166 162 158 165 169 174 179 178 192 239 275 285 297 302 305 307 306 311 313 314 314 313 313 309 301 288 289 287 286 285 283 280 279 281 282 283 284 284 289 292 297 297 298 301
154 152 152 158 164 166 171 183 208 248 287 297 296 299 303 306 310 315 316 316 316 314 312 309 304 300 297 295 293 290 288 288 286 287 287 286 285 287 290 293 294 295 298 302
146 149 154 162 169 178 198 221 241 269 283 290 291 302 302 306 308 311 315 314 315 314 313 311 309 306 304 303 299 295 292 291 291 290 288 287 288 292 294 295 297 297 299 303
Wind_Speed_850mb
6 9 6 8 10 17 17 16 23 20 20 12 21 18 36 32 31 40 40 47 53 53 45 41 36 29 26 25 26 29 31 33 38 44 48 51 55 56 59 66 75 81 86 90
6 4 7 10 14 17 21 10 13 18 35 17 18 26 22 26 26 27 26 28 37 45 43 41 35 33 30 33 38 39 38 42 46 51 52 57 59 60 67 76 79 85 87 89
21 2 6 16 22 30 19 19 18 27 36 9 13 17 21 27 25 24 23 25 30 36 40 40 40 41 44 48 50 50 48 48 50 55 58 62 62 68 75 78 82 84 85 88
5 4 10 6 6 7 14 16 14 5 6 15 11 13 18 20 26 28 24 24 26 27 28 35 44 53 58 60 61 56 53 53 52 57 62 61 64 72 75 80 83 85 86 88
8 9 14 15 11 14 15 18 17 23 11 12 11 13 28 25 31 29 27 25 25 25 31 40 48 53 57 59 59 57 56 54 55 57 58 61 69 71 75 80 81 82 86 90
7 8 17 8 4 11 14 13 20 29 18 20 15 3 13 36 41 34 29 25 31 36 44 48 50 50 52 55 57 57 54 54 55 56 59 65 68 70 74 77 81 83 86 85
11 11 15 13 12 14 11 15 26 31 21 23 12 34 39 26 28 41 33 33 34 41 45 49 52 54 57 59 59 56 55 54 56 57 60 65 67 68 72 77 80 83 85 83
5 3 18 24 13 18 11 28 35 33 26 30 39 40 41 42 34 43 42 45 44 45 48 51 57 61 63 62 56 53 53 54 53 55 58 61 65 66 68 71 77 80 82 83
21 14 1 43 15 43 35 29 32 28 23 35 46 49 44 46 47 53 55 52 49 48 51 56 61 66 66 60 55 54 54 53 53 55 56 56 60 62 67 67 73 77 76 79
9 8 12 23 33 34 39 56 53 46 39 45 52 54 51 54 59 59 56 58 55 54 58 63 65 67 64 58 56 55 55 55 54 54 54 54 56 57 62 63 68 72 73 80
5 8 10 31 39 43 50 57 52 53 56 59 59 60 63 67 67 62 57 57 53 56 58 64 67 65 60 57 56 56 56 54 53 55 55 55 56 55 57 57 60 63 63 67
9 25 23 29 48 47 46 53 58 60 63 61 59 65 61 65 66 56 51 52 53 54 58 65 65 60 56 55 58 58 54 53 53 54 52 54 57 58 45 50 52 53 47 44
21 52 46 53 55 56 58 64 65 65 66 65 61 60 62 60 57 54 55 55 56 54 56 58 56 55 55 57 59 55 55 53 53 52 52 54 55 56 61 42 41 47 44 45
61 63 43 65 49 57 52 50 51 53 55 52 54 56 60 60 58 61 58 52 49 50 52 53 54 52 54 56 53 53 52 51 52 49 50 52 53 50 49 50 47 41 39 45
59 59 67 66 59 62 58 60 61 64 58 57 60 59 55 57 57 51 47 47 48 50 53 53 53 49 54 53 52 50 49 48 48 47 46 48 47 45 43 42 41 41 41 37
66 56 54 52 54 46 43 50 57 56 54 56 52 47 44 44 43 45 48 49 50 53 51 50 49 44 51 51 50 48 48 47 45 45 44 43 41 40 39 37 37 37 38 43
63 63 65 61 58 51 46 46 48 48 48 46 41 40 39 41 44 46 47 49 51 49 45 47 45 48 52 51 51 48 46 44 43 41 41 40 36 34 35 34 35 36 34 36
74 73 64 58 56 52 49 46 42 42 40 37 36 37 39 40 40 41 43 44 45 46 43 48 49 48 51 51 49 47 45 42 41 39 37 34 31 31 31 32 32 35 31 29
85 79 67 60 54 49 39 36 35 33 32 32 33 32 31 32 33 36 39 42 43 47 40 50 52 52 47 47 49 46 42 40 37 36 33 31 28 28 29 30 30 31 33 34
71 62 53 46 39 34 31 32 32 30 26 23 23 23 25 30 32 34 38 42 40 47 48 47 52 52 49 47 45 41 39 37 35 34 32 30 29 28 28 29 31 31 33 34
54 45 41 37 34 31 31 28 26 22 19 18 18 18 21 26 31 35 39 45 38 47 48 45 43 40 41 40 39 37 35 34 35 35 33 32 31 31 32 34 36 38 39 41
38 35 34 33 30 26 23 20 17 14 12 12 12 16 21 27 32 35 39 42 38 39 39 37 34 33 32 32 33 32 33 33 33 34 33 33 33 34 35 38 38 38 39 41
32 30 26 23 21 20 17 14 11 9 8 10 13 15 19 24 27 27 26 28 27 28 28 28 27 27 27 29 29 29 30 32 32 33 33 33 34 36 37 37 37 37 38 38
24 24 23 21 18 18 17 14 10 7 6 9 13 15 17 18 21 19 20 21 23 26 26 26 26 22 27 28 30 30 31 31 32 32 32 32 33 36 37 37 36 37 38 39
22 23 22 20 18 16 13 8 5 4 5 7 10 11 11 12 15 18 20 22 24 26 26 26 26 26 30 31 32 31 30 31 30 30 31 32 34 37 37 38 38 41 41 40
23 21 20 18 15 12 9 6 5 4 4 6 7 9 11 14 16 19 20 23 23 24 25 26 26 26 27 28 28 28 28 29 32 33 34 36 38 38 38 39 39 41 41 41
19 17 15 12 10 7 5 3 2 2 4 6 11 11 13 14 16 19 20 22 22 23 24 25 26 27 27 28 29 30 31 32 33 35 36 37 37 36 37 38 38 40 40 40
Wind_Direction_850mb
217 158 149 218 208 173 195 216 216 242 222 220 204 214 233 231 254 257 250 245 240 237 237 231 228 233 240 249 256 265 275 287 296 303 306 308 310 309 311 313 313 313 312 311
256 242 195 252 235 204 236 244 255 263 268 246 238 227 240 253 237 225 233 241 239 237 233 230 240 242 246 252 253 259 267 276 288 297 301 306 306 307 310 311 312 312 312 312
235 90 104 278 218 211 208 210 215 233 242 156 229 192 228 245 227 233 246 246 242 237 239 242 248 248 251 253 254 257 264 273 286 296 300 303 304 307 309 311 312 313 313 313
125 109 222 261 75 106 221 250 211 266 234 221 238 277 276 274 270 253 237 229 231 239 245 247 250 248 249 252 252 253 260 269 285 294 296 297 302 307 310 313 313 315 315 315
198 202 320 271 194 169 170 260 192 212 220 238 242 270 271 261 246 240 247 246 247 246 256 259 254 252 252 251 248 251 261 272 285 290 292 298 306 310 313 313 314 315 316 317
131 178 220 269 69 127 108 274 211 192 193 191 161 146 262 275 244 238 222 236 271 273 260 264 266 264 255 246 246 255 266 277 285 290 296 305 307 311 314 314 315 316 316 317
201 233 281 227 179 127 113 250 162 181 191 197 188 235 269 270 241 233 238 271 277 263 265 270 266 261 250 246 251 261 270 280 286 290 299 304 308 314 316 316 316 316 316 318
84 184 269 164 116 164 190 156 171 191 220 234 258 264 260 256 241 228 256 273 270 261 268 268 257 251 246 250 257 267 275 280 283 289 299 305 309 314 313 315 316 316 318 320
186 205 80 180 201 219 241 229 220 230 281 294 274 257 254 246 250 261 268 265 261 260 265 260 254 249 249 254 262 273 278 282 285 293 301 306 309 313 315 317 317 318 320 321
109 206 214 215 228 251 256 251 256 260 280 284 270 261 255 257 264 263 262 263 257 260 261 254 250 250 251 257 267 275 281 283 288 296 302 307 311 316 316 319 318 319 322 326
265 256 198 236 244 266 268 261 263 267 279 280 270 260 268 268 272 268 265 263 259 263 264 255 248 250 253 262 270 276 279 284 291 298 304 309 312 316 317 320 321 321 318 314
207 231 230 252 273 273 268 269 271 275 280 283 279 267 270 275 274 267 265 262 263 264 254 246 248 251 260 268 275 278 281 284 291 298 305 309 311 312 315 317 319 320 316 311
221 259 258 263 270 275 274 276 278 280 283 284 285 274 280 278 271 267 265 262 263 260 251 249 252 258 263 270 275 277 280 285 293 300 305 308 309 311 314 316 317 324 331 334
249 253 256 261 260 285 283 287 287 281 283 281 280 279 279 270 264 266 262 260 258 255 253 255 258 262 267 272 273 275 281 287 292 297 301 304 306 309 313 319 324 325 329 341
252 247 256 268 275 278 283 284 281 283 282 279 278 277 272 268 265 260 258 258 259 258 258 260 263 267 270 273 276 278 282 285 289 293 296 299 301 305 309 312 317 325 327 333
263 263 260 260 265 271 275 274 273 276 281 282 278 269 262 257 255 259 262 263 262 263 265 267 271 273 274 276 277 279 280 283 287 290 293 295 299 303 305 307 313 321 329 334
250 252 254 257 261 274 276 277 273 273 271 267 261 256 256 258 261 263 264 265 265 267 271 275 276 273 273 274 275 276 278 281 284 285 288 290 295 300 302 306 312 318 328 333
256 262 267 269 271 272 274 271 262 258 256 252 249 250 255 259 260 261 264 270 276 279 283 279 277 274 274 275 274 274 277 278 278 279 280 284 291 297 300 305 311 315 324 329
264 265 265 265 265 266 255 247 244 242 239 240 244 247 253 258 266 274 279 280 281 282 281 277 279 278 275 272 271 273 274 273 273 273 275 279 286 292 297 302 306 310 317 323
261 257 252 251 250 240 237 234 231 228 230 239 253 263 270 276 277 277 280 282 287 284 283 281 278 277 275 270 268 268 266 266 265 266 269 274 279 285 291 297 301 306 310 315
250 244 238 231 227 223 220 218 218 221 230 247 261 271 278 281 286 290 293 295 299 293 292 289 283 276 267 264 262 261 260 261 265 267 267 270 276 283 288 292 295 300 303 307
232 226 220 215 211 208 203 205 213 224 237 251 267 280 286 290 297 303 306 307 310 305 302 298 289 282 273 267 262 259 260 264 266 268 270 274 279 284 288 290 293 295 300 303
215 207 203 199 194 190 189 195 203 219 244 272 284 294 301 302 306 313 315 318 320 319 313 306 297 289 282 271 267 266 271 271 271 272 274 277 282 286 289 291 294 299 301 306
189 181 178 180 179 178 180 183 194 218 256 292 301 307 308 311 315 322 323 323 319 317 314 309 303 298 280 279 280 282 280 277 275 275 276 280 283 285 288 292 298 300 302 304
166 162 158 165 169 174 179 178 192 239 275 285 297 302 305 307 306 311 313 314 314 313 313 309 301 288 289 287 286 285 283 280 279 281 282 283 284 284 289 292 297 297 298 301
154 152 152 158 164 166 171 183 208 248 287 297 296 299 303 306 310 315 316 316 316 314 312 309 304 300 297 295 293 290 288 288 286 287 287 286 285 287 290 293 294 295 298 302
146 149 154 162 169 178 198 221 241 269 283 290 291 302 302 306 308 311 315 314 315 314 313 311 309 306 304 303 299 295 292 291 291 290 288 287 288 292 294 295 297 297 299 303